DECAYED

STARLINK-1763, 46364 (Decayed)

Orbit data source: Space-Track

STARLINK-1763, 46364 was a payload satellite owned by SpaceX/Seattle (US) in LEO that was launched on Thu, 03 Sep 2020 UTC via an FALCON 9 launch vehicle from the Air Force Eastern Test Range (AFETR). Payload-class satellites include a variety of spacecraft equipped with specific instruments for various scientific and technological missions. These include communications satellites like Starlink; space stations such as the ISS; scientific satellites like the Hubble; Earth observation satellites from companies like Planet Labs, Umbra, and HawkEye 360; GPS; miniature CubeSats for education and research; and military/defense satellites.

Not visible in the next 10 days
Identifier
46364, 2020-062AR
Orbit
Decayed
Country
Flag of USUS
Related business
Manufacturer
SpaceX/Seattle
Mission
Decayed Commercial Communications
Bus & Motor
STARLINK, Unknown motor
Mass
260 kg wet, ~248 kg dry
Launch date (UTC)
2020-09-03 (5 years ago)
Launch vehicle
FALCON 9
Launch site
Air Force Eastern Test Range (AFETR)
Object type
Payload
Rocket body
Debris
Shape & HBR
Box + 1 Pan, 10.1 m
Radar Cross Section
13.562 m², Large (>1 m²)

Expand to show TLE details & history
Last TLE update: 8 months ago

TLE from 8 months ago
0 STARLINK-1763
1 46364U 20062AR  25061.72529284  .14388714  12484-4  86808-3 0  9998
2 46364  53.0197 139.0027 0005314 334.1997 166.7241 16.41475781249849
Epoch: 2025-03-02T17:24Z
TLE epoch observation values (Epoch: 2025-03-02T17:24:25.301Z)
Latitude
30.32411°
Longitude
-128.82702°
Altitude
167.001 km
Speed
7.808 km/s
True Right ascension
19h 32m 07s
True Declination
30° 09' 39"
Sunlit
Object was in daylight at epoch
Visualization orbit readout
Latitude
Unknown
Longitude
Unknown
Altitude
Unknown
Speed
Unknown
Apparent Right ascension
Unknown
Apparent Declination
Unknown
Sunlit
N/A
Visualization observer readout
Local Sidereal Time
00:07:47
Azimuth
Unknown
Elevation
Unknown
Doppler factor
Unknown
Orbital elements
Apogee altitude
165.647 km
Perigee altitude
158.696 km
Semi-major axis
6,540.309 km
Eccentricity
0.00053
Inclination
53.0197°
RAAN
139.0027°
Arg. of periapsis
334.1997°
True anomaly
166.73807°
Mean anomaly
166.7241°
Eccentric anomaly
166.73109°
Mean motion
4.10342 °/min
Orbital period
87.73 mins
BSTAR
0.00086808
Loading maneuver chart data...
Computing Atmospheric mass density...
Loading historical data...
Loading historical data...
Loading historical data...
Loading historical data...
Loading historical data...
Loading historical data...
Loading historical data...

Documentation

Showing up to 5 results
|